Weather History for KNXP - October, 2013

Change the Weather History Date:

Friday, October 25, 2013

  Actual Average Record
Temperature  
Mean Temperature 70 °F -  
Max Temperature 87 °F 74 °F 89 °F (1999)
Min Temperature 53 °F 50 °F 48 °F (1997)
Cooling Degree Days 4    
Growing Degree Days 20 (Base 50)    
Moisture  
Dew Point 21 °F    
Average Humidity 17    
Maximum Humidity 29    
Minimum Humidity 8    
Precipitation  
Precipitation 0.00 in - - ()
Sea Level Pressure  
Sea Level Pressure 30.02 in    
Wind  
Wind Speed 5 mph (West)    
Max Wind Speed 10 mph    
Max Gust Speed -    
Visibility 10 miles    
Events      
Averages and records for this station are not official NWS values.
T = Trace of Precipitation, MM = Missing Value Source: NWS Daily Summary

Daily Weather History Graph

Daily Weather History Graph

Search for Another Location

Airport or City:

Trip Planner

Search our weather history database for the weather conditions in past years. The results will help you decide how hot, cold, wet, or windy it might be!

Date:

Astronomy

Oct. 25, 2013 Rise Set
Actual Time 6:58 AM PDT 5:58 PM PDT
Civil Twilight 6:32 AM PDT 6:23 PM PDT
Nautical Twilight 6:03 AM PDT 6:53 PM PDT
Astronomical Twilight 5:34 AM PDT 7:22 PM PDT
Moon 11:25 PM PDT (10/25) 12:37 PM PDT (10/25)
Length of Visible Light 11h 50m
Length of Day
10h 59m
Waning Gibbous, 61% of the Moon is Illuminated
Oct 25
Waning Gibbous
Oct 26
Last Quarter
Nov 3
New
Nov 9
First Quarter
Nov 17
Full

Hourly Weather History & Observations

Time (PDT) Temp. Dew Point Humidity Pressure Visibility Wind Dir Wind Speed Gust Speed Precip Events Conditions
12:56 AM 62.1 °F 19.9 °F 20% 30.01 in 10.0 mi West 9.2 mph - N/A   Clear
1:56 AM 61.0 °F 23.0 °F 23% 30.02 in 10.0 mi NW 4.6 mph - N/A   Clear
2:56 AM 60.1 °F 26.1 °F 27% 30.02 in 10.0 mi WSW 8.1 mph - N/A   Clear
3:56 AM 60.1 °F 24.1 °F 25% 30.02 in 10.0 mi WSW 10.4 mph - N/A   Clear
4:56 AM 60.1 °F 23.0 °F 24% 30.03 in 10.0 mi West 10.4 mph - N/A   Clear
5:56 AM 59.0 °F 24.1 °F 26% 30.04 in 10.0 mi West 10.4 mph - N/A   Clear
6:56 AM 53.1 °F 21.0 °F 29% 30.06 in 9.0 mi NNW 4.6 mph - N/A   Clear
7:56 AM 55.9 °F 21.9 °F 27% 29.43 in 7.0 mi WNW 4.6 mph - N/A   Clear
8:56 AM 61.0 °F 21.9 °F 22% 30.11 in 5.0 mi Calm Calm - N/A   Clear
9:56 AM 68.0 °F 23.0 °F 18% 30.11 in 10.0 mi Calm Calm - N/A   Clear
10:56 AM 73.9 °F 23.0 °F 15% 30.09 in 9.0 mi Calm Calm - N/A   Clear
11:56 AM 80.1 °F 21.9 °F 12% 30.08 in 10.0 mi Calm Calm - N/A   Clear
12:56 PM 84.0 °F 21.0 °F 10% 30.05 in 10.0 mi Calm Calm - N/A   Clear
1:56 PM 84.9 °F 21.0 °F 10% 30.03 in 10.0 mi Calm Calm - N/A   Clear
2:56 PM 86.0 °F 19.9 °F 9% 30.02 in 10.0 mi Calm Calm - N/A   Clear
3:56 PM 86.0 °F 19.0 °F 8% 30.02 in 10.0 mi Calm Calm - N/A   Partly Cloudy
4:56 PM 84.9 °F 19.0 °F 9% 30.01 in 10.0 mi NNE 4.6 mph - N/A   Partly Cloudy
5:56 PM 81.0 °F 19.9 °F 10% 30.02 in 7.0 mi Calm Calm - N/A   Partly Cloudy
6:56 PM 75.9 °F 19.9 °F 12% 30.05 in 10.0 mi Calm Calm - N/A   Partly Cloudy
7:56 PM 71.1 °F 19.9 °F 14% 30.06 in 10.0 mi West 8.1 mph - N/A   Clear
8:56 PM 69.1 °F 19.0 °F 15% 30.06 in 10.0 mi WSW 8.1 mph - N/A   Clear
9:56 PM 66.0 °F 19.0 °F 17% 30.08 in 10.0 mi SW 5.8 mph - N/A   Clear
10:56 PM 63.0 °F 18.0 °F 18% 30.08 in 10.0 mi NNW 3.5 mph - N/A   Clear
11:56 PM 62.1 °F 18.0 °F 18% 30.08 in 10.0 mi West 6.9 mph - N/A   Clear